COSMOS 2251 DEB

Satellite information

Favourite Embed

Satellite Type and Status

DEBRISIN ORBIT

Key statistics

Satellite COSMOS 2251 DEB at a glance.

Uptime

11869

Days in orbit

Revolutions

≈ 14.5

Per day

Orbit

LEO

Low Earth Orbit

Inclination

74.0

Latest

Satellite identification and parameters

Extended collection of information and parameters for COSMOS 2251 DEB.

Object identification

Identified? True

Debris? True

Object name: COSMOS 2251 DEB

International designator: 1993-036ABN

Object number (NORAD): 34823

Object ID (CCSDS): 34823

Country: COMMONWEALTH OF INDEPENDENT STATES (CIS)

Current information (Y/N): Y

RCS size: SMALL

Orbital parameters

Period: 98.974 minutes

Inclination: 74.041 deg

SMA: 7087.725 km

Apoapsis: 819.238 km

Periapsis: 599.941 km

RAAN: 102.2866 deg

Eccentricy: 0.0154702

Argument of periapsis: 187.0633 deg

Mean anomaly: 172.8354 deg

Mean motion: 14.54931387 rev/day

Mean motion (dot): 0.00006001 rev/day2

B* drag term: 0.0011937013 1/REarth

Two-line elements (TLE)

Creation date: Dec. 13, 2025, 4:32 a.m.

Reference frame: TEME

Reference center: EARTH

Epoch: Dec. 12, 2025, 5:39 p.m. UTC

TLE line 0: 0 COSMOS 2251 DEB

TLE line 1: 1 34823U 93036ABN 25346.73611035 .00006001 00000-0 11937-2 0 9997

TLE line 2: 2 34823 74.0410 102.2866 0154702 187.0633 172.8354 14.54931387883813

Live tracking on map

Real-time ground track for satellite COSMOS 2251 DEB.

In-orbit conjunctions

A list of the most updated potential collisions computed for object COSMOS 2251 DEB.

Target Orbit TCA Probability of collision Miss distance Type
THORAD AGENA D DEB SSO 2024-11-21 11:57:46 0.0001476341 170.0 (m) DEBRIS
CZ-6A DEB SSO 2024-07-25 15:07:36 0.0001227745 112.0 (m) DEBRIS

Associated space launch

Military communications satellite. Destroyed in a collision with Iridium 33.

COSMOS 2251 DEB was lifted into orbit during the mission ‘Kosmos-3M | Strela-2M 51’, on board a Kosmos-3M space rocket.

The launch took place on June 16, 1993, 4:17 a.m. from 132/1 (132L).

For more information about the launch, click the button.

Launch to space Kosmos-3M | Strela-2M 51
Kosmos-3M | Strela-2M 51

Agency: N/A

Status: Launch Successful

Launch date: June 16, 1993, 4:17 a.m. UTC

Rocket: Kosmos-3M

Launch pad: 132/1 (132L)

Location: Plesetsk Cosmodrome, Russian Federation

...

Latest news about this satellite

There are no fresh news available about this satellite. Check back as we update our databases every day.


Newsletter sign-up

Weekly statistics, charts and insights to help you stay on top of the space industry.